{"data":{"norad_id":60935,"intl_designator":"2024-155M","name":"STARLINK-11253 [DTC]","alt_names":[],"object_type":"PAYLOAD","status":"ACTIVE","operator":null,"country":"US","launch_date":"2024-08-31","launch_site_code":"AFWTR","launch_vehicle":null,"mission":null,"orbit_class":"UNKNOWN","rcs_meters":null,"size_class":null,"mass_kg":null,"dimensions":null,"purposes":["comms"],"wikipedia_slug":null,"has_3d_model":false,"image_url":null,"decayed_at":null,"tle_current":{"epoch":"2026-05-24T22:28:02.800128Z","epoch_age_seconds":83729,"freshness":"FRESH","line1":"1 60935U 24155M   26144.93614352 -.00000225  00000+0  29950-5 0  9999","line2":"2 60935  53.1591 325.6817 0000781  95.2162 264.8945 15.69714239100378","mean_motion":15.69714239,"eccentricity":7.81e-5,"inclination_deg":53.1591,"raan_deg":325.6817,"arg_perigee_deg":95.2162,"mean_anomaly_deg":264.8945,"bstar":2.995e-6,"rev_number":10037,"period_min":91.73644248251,"perigee_km":359.18839384016,"apogee_km":360.24084626321,"semimajor_km":6737.8516200517,"source":"CELESTRAK","updated_at":"2026-05-25T13:38:19.319466Z"}}}